DEAMA EDDG-ZZZZ

Flight info

Callsign DEAMA
Flight time N/A
Altitude 1000
Route DCT
Aircraft C172

Departure

Time 2026-04-23 18:36
Airport Münster Osnabrück Airport (EDDG)

Arrival

Time N/A
Airport ZZZZ
Time Latitude Longitude Altitude Speed Heading
2026-04-23 18:29 52.13658 7.67852 162 ft 0 kts 167°
2026-04-23 18:32 52.13650 7.67875 162 ft 3 kts 104°
2026-04-23 18:32 52.13637 7.67938 158 ft 8 kts 103°
2026-04-23 18:32 52.13633 7.67974 157 ft 6 kts 121°
2026-04-23 18:32 52.13628 7.67986 157 ft 0 kts 129°
2026-04-23 18:35 52.13626 7.67990 157 ft 2 kts 134°
2026-04-23 18:35 52.13602 7.67978 157 ft 11 kts 239°
2026-04-23 18:35 52.13516 7.67601 159 ft 58 kts 253°
2026-04-23 18:35 52.13315 7.66873 272 ft 72 kts 258°
2026-04-23 18:36 52.13126 7.66117 478 ft 80 kts 258°
2026-04-23 18:36 52.12620 7.65619 669 ft 100 kts 186°
2026-04-23 18:36 52.11907 7.65946 765 ft 113 kts 150°
2026-04-23 18:36 52.11449 7.66879 812 ft 102 kts 107°
2026-04-23 18:37 52.11526 7.67939 759 ft 96 kts 60°
2026-04-23 18:37 52.11828 7.69008 673 ft 111 kts 65°
2026-04-23 18:37 52.12035 7.70213 696 ft 110 kts 72°
2026-04-23 18:37 52.12133 7.71420 724 ft 106 kts 78°
2026-04-23 18:38 52.12188 7.72618 757 ft 106 kts 81°
2026-04-23 18:38 52.12388 7.73710 843 ft 95 kts 44°
2026-04-23 18:38 52.12952 7.74151 781 ft 93 kts 355°
2026-04-23 18:38 52.13546 7.73659 695 ft 102 kts 328°
2026-04-23 18:39 52.14116 7.72899 572 ft 103 kts 306°
2026-04-23 18:39 52.14119 7.71748 453 ft 108 kts 257°
2026-04-23 18:39 52.13913 7.70697 308 ft 88 kts 258°
2026-04-23 18:39 52.13756 7.69891 225 ft 62 kts 260°
2026-04-23 18:40 52.13616 7.69279 166 ft 55 kts 267°
2026-04-23 18:40 52.13484 7.68669 227 ft 58 kts 257°
2026-04-23 18:40 52.13341 7.67941 293 ft 80 kts 261°
2026-04-23 18:40 52.13188 7.67065 543 ft 80 kts 270°
2026-04-23 18:41 52.13232 7.66220 785 ft 85 kts 279°
2026-04-23 18:41 52.13249 7.65537 867 ft 92 kts 278°
2026-04-23 18:41 52.13281 7.64479 1051 ft 97 kts 284°
2026-04-23 18:41 52.13345 7.63341 1161 ft 99 kts 288°
2026-04-23 18:42 52.13531 7.62300 1274 ft 92 kts 306°
2026-04-23 18:42 52.13955 7.61555 1403 ft 88 kts 327°
2026-04-23 18:42 52.14470 7.61028 1501 ft 90 kts 330°
2026-04-23 18:42 52.15012 7.60469 1545 ft 95 kts 330°
2026-04-23 18:43 52.15557 7.59847 1621 ft 91 kts 329°
2026-04-23 18:43 52.16060 7.59291 1739 ft 86 kts 328°
2026-04-23 18:43 52.16555 7.58731 1822 ft 84 kts 330°
2026-04-23 18:43 52.17027 7.58229 1946 ft 81 kts 331°
2026-04-23 18:44 52.17503 7.57698 2055 ft 83 kts 331°
2026-04-23 18:44 52.17963 7.57144 2193 ft 81 kts 329°
2026-04-23 18:44 52.18416 7.56576 2270 ft 85 kts 328°
2026-04-23 18:44 52.18877 7.56003 2377 ft 84 kts 329°
2026-04-23 18:45 52.19346 7.55428 2402 ft 92 kts 328°
2026-04-23 18:45 52.19900 7.54745 2309 ft 100 kts 329°
2026-04-23 18:45 52.20447 7.54085 2330 ft 95 kts 329°
2026-04-23 18:45 52.20977 7.53472 2375 ft 92 kts 331°
2026-04-23 18:46 52.21496 7.52913 2434 ft 89 kts 334°
2026-04-23 18:46 52.22062 7.52474 2478 ft 90 kts 343°
2026-04-23 18:46 52.22699 7.52214 2378 ft 100 kts 352°
2026-04-23 18:46 52.23400 7.52171 2349 ft 100 kts
2026-04-23 18:47 52.24106 7.52264 2132 ft 101 kts
2026-04-23 18:47 52.24795 7.52401 1965 ft 99 kts
2026-04-23 18:47 52.25472 7.52573 1834 ft 97 kts
2026-04-23 18:47 52.26138 7.52748 1686 ft 99 kts
2026-04-23 18:48 52.26770 7.52907 1541 ft 94 kts
2026-04-23 18:48 52.27430 7.53020 1376 ft 96 kts
2026-04-23 18:48 52.28095 7.53117 1226 ft 97 kts
2026-04-23 18:48 52.28777 7.53227 1104 ft 101 kts
2026-04-23 18:49 52.29489 7.53324 932 ft 102 kts
2026-04-23 18:49 52.30202 7.53450 784 ft 101 kts
2026-04-23 18:49 52.30876 7.53584 604 ft 90 kts
2026-04-23 18:49 52.31461 7.53674 433 ft 79 kts
2026-04-23 18:50 52.31798 7.53751 360 ft 67 kts
2026-04-23 18:50 52.32310 7.53841 265 ft 53 kts
2026-04-23 18:50 52.32660 7.53913 190 ft 50 kts 359°
2026-04-23 18:50 52.33005 7.53972 153 ft 50 kts
2026-04-23 18:51 52.33328 7.54030 133 ft 45 kts
2026-04-23 18:51 52.33607 7.54075 130 ft 38 kts
2026-04-23 18:51 52.33795 7.54115 130 ft 17 kts
2026-04-23 18:51 52.33879 7.54098 130 ft 10 kts 295°
2026-04-23 18:52 52.33887 7.53998 131 ft 7 kts 284°
2026-04-23 18:52 52.33889 7.53952 131 ft 3 kts 252°
2026-04-23 18:52 52.33840 7.53939 131 ft 11 kts 182°
2026-04-23 18:52 52.33768 7.53928 131 ft 4 kts 195°
2026-04-23 18:53 52.33769 7.53914 130 ft 4 kts 343°
2026-04-23 18:53 52.33797 7.53895 131 ft 2 kts 249°
2026-04-23 18:53 52.33791 7.53851 131 ft 5 kts 210°
2026-04-23 18:53 52.33790 7.53839 131 ft 0 kts 332°
2026-04-23 18:58 52.33794 7.53839 131 ft 2 kts 24°
2026-04-23 18:59 52.33798 7.53889 131 ft 6 kts 89°
2026-04-23 18:59 52.33817 7.53933 131 ft 5 kts
2026-04-23 18:59 52.33850 7.53937 131 ft 4 kts
2026-04-23 18:59 52.33870 7.53940 129 ft 7 kts
2026-04-23 19:00 52.33891 7.53988 131 ft 6 kts 98°
2026-04-23 19:00 52.33886 7.54039 131 ft 2 kts 95°
2026-04-23 19:00 52.33886 7.54042 130 ft 0 kts 91°
2026-04-23 19:03 52.33883 7.54086 130 ft 14 kts 108°
2026-04-23 19:03 52.33845 7.54131 130 ft 0 kts 187°
2026-04-23 19:03 52.33810 7.54124 130 ft 25 kts 189°
2026-04-23 19:03 52.33452 7.54062 133 ft 75 kts 188°
2026-04-23 19:04 52.32878 7.53981 302 ft 86 kts 187°
2026-04-23 19:04 52.32258 7.53895 494 ft 91 kts 195°
2026-04-23 19:04 52.31624 7.53593 610 ft 102 kts 182°
2026-04-23 19:04 52.30946 7.53647 822 ft 106 kts 179°
2026-04-23 19:05 52.30195 7.53776 1081 ft 107 kts 171°
2026-04-23 19:05 52.29462 7.54004 1347 ft 109 kts 174°
2026-04-23 19:05 52.28716 7.53935 1593 ft 112 kts 193°
2026-04-23 19:05 52.27899 7.53718 1684 ft 119 kts 194°
2026-04-23 19:06 52.27353 7.53574 1709 ft 121 kts 194°
2026-04-23 19:06 52.26516 7.53311 1922 ft 121 kts 196°
2026-04-23 19:06 52.25942 7.53115 2056 ft 119 kts 198°
2026-04-23 19:06 52.25081 7.52787 2104 ft 131 kts 199°
2026-04-23 19:07 52.24179 7.52451 2251 ft 130 kts 196°
2026-04-23 19:07 52.23264 7.52150 2241 ft 135 kts 195°
2026-04-23 19:07 52.22324 7.51883 2175 ft 141 kts 188°
2026-04-23 19:07 52.21400 7.51781 2127 ft 120 kts 182°
2026-04-23 19:08 52.20588 7.51782 2073 ft 115 kts 180°
2026-04-23 19:08 52.19776 7.51782 2016 ft 118 kts 181°
2026-04-23 19:08 52.18950 7.51853 1948 ft 121 kts 173°
2026-04-23 19:08 52.18170 7.52320 1992 ft 117 kts 146°
2026-04-23 19:09 52.17512 7.53157 1965 ft 119 kts 128°
2026-04-23 19:09 52.16992 7.54201 1962 ft 118 kts 119°
2026-04-23 19:09 52.16562 7.55352 1922 ft 119 kts 109°
2026-04-23 19:09 52.16156 7.56508 1921 ft 120 kts 112°
2026-04-23 19:10 52.15718 7.57651 1975 ft 115 kts 116°
2026-04-23 19:10 52.15200 7.58653 2004 ft 117 kts 130°
2026-04-23 19:10 52.14568 7.59481 1979 ft 110 kts 135°
2026-04-23 19:10 52.14008 7.60270 1759 ft 103 kts 126°
2026-04-23 19:11 52.13560 7.61154 1530 ft 101 kts 118°
2026-04-23 19:11 52.13194 7.62089 1342 ft 96 kts 109°
2026-04-23 19:11 52.12930 7.63096 1102 ft 97 kts 103°
2026-04-23 19:11 52.12733 7.64116 911 ft 93 kts 95°
2026-04-23 19:12 52.12750 7.65131 665 ft 87 kts 68°
2026-04-23 19:12 52.12930 7.66030 490 ft 82 kts 59°
2026-04-23 19:12 52.13125 7.66888 297 ft 78 kts 65°
2026-04-23 19:12 52.13281 7.67609 178 ft 56 kts 63°
2026-04-23 19:13 52.13387 7.68073 162 ft 40 kts 76°
2026-04-23 19:13 52.13251 7.68306 164 ft 20 kts 166°
2026-04-23 19:13 52.13237 7.68340 164 ft 0 kts 333°
2026-04-23 19:14 52.13251 7.68325 164 ft 10 kts 315°
2026-04-23 19:14 52.13223 7.68300 164 ft 11 kts 150°
2026-04-23 19:14 52.13176 7.68219 163 ft 10 kts 258°
2026-04-23 19:14 52.13157 7.68221 163 ft 3 kts 97°
2026-04-23 19:15 52.13158 7.68237 163 ft 0 kts 91°